Wauseon Fulton County Airport, OH

5:47 PM EDT on April 23, 2017 (GMT -0400)
Fulton County

Weather History for KUSE - February, 2014

Change the Weather History Date:

Thursday, February 27, 2014

  Actual Average (KTOL) Record (KTOL)
Temperature  
Mean Temperature 9 °F -  
Max Temperature 15 °F 39 °F 66 °F (1996)
Min Temperature 3 °F 22 °F -10 °F (1963)
Degree Days  
Heating Degree Days 56    
Moisture  
Dew Point -2 °F    
Average Humidity 58    
Maximum Humidity 86    
Minimum Humidity 44    
Precipitation  
Precipitation 0.00 in - - ()
Sea Level Pressure  
Sea Level Pressure 29.88 in    
Wind  
Wind Speed 17 mph (WNW)    
Max Wind Speed 25 mph    
Max Gust Speed 37 mph    
Visibility 8 miles    
Events Snow    
Averages and records for this station are not official NWS values.
T = Trace of Precipitation, MM = Missing Value Source: NWS Daily Summary

Daily Weather History Graph

Daily Weather History Graph

Search for Another Location

Airport or City:

Trip Planner

Search our weather history database for the weather conditions in past years. The results will help you decide how hot, cold, wet, or windy it might be!

Date:

Astronomy

Feb. 27, 2014 Rise Set
Actual Time 7:14 AM EST 6:24 PM EST
Civil Twilight 6:46 AM EST 6:52 PM EST
Nautical Twilight 6:14 AM EST 7:24 PM EST
Astronomical Twilight 5:42 AM EST 7:56 PM EST
Moon 5:47 AM EST (2/27) 4:48 PM EST (2/27)
Length of Visible Light 12h 06m
Length of Day
11h 10m
Waning Crescent, 4% of the Moon is Illuminated
Feb 27
Waning Crescent
Mar 1
New
Mar 8
First Quarter
Mar 16
Full
Mar 23
Last Quarter

Hourly Weather History & Observations

Time (EST) Temp. Windchill Dew Point Humidity Pressure Visibility Wind Dir Wind Speed Gust Speed Precip Events Conditions
12:15 AM 12.2 °F -4.3 °F 1.4 °F 62% 29.66 in 10.0 mi WSW 16.1 mph 24.2 mph N/A   Clear
12:35 AM 12.2 °F -3.7 °F 1.4 °F 62% 29.65 in 10.0 mi WSW 15.0 mph 23.0 mph N/A   Clear
12:55 AM 12.2 °F -3.7 °F 3.2 °F 67% 29.63 in 10.0 mi WSW 15.0 mph 26.5 mph N/A   Clear
1:15 AM 14.0 °F -2.0 °F 3.2 °F 62% 29.62 in 10.0 mi WSW 16.1 mph - N/A   Clear
1:35 AM 14.0 °F -3.0 °F 3.2 °F 62% 29.61 in 10.0 mi WSW 18.4 mph 24.2 mph N/A   Partly Cloudy
1:55 AM 14.0 °F -3.0 °F 3.2 °F 62% 29.60 in 10.0 mi WSW 18.4 mph 27.6 mph N/A   Clear
2:15 AM 14.0 °F -3.9 °F 3.2 °F 62% 29.59 in 10.0 mi WSW 20.7 mph - N/A   Scattered Clouds
2:35 AM 14.0 °F -3.4 °F 5.0 °F 67% 29.58 in 10.0 mi WSW 19.6 mph 28.8 mph N/A   Scattered Clouds
2:55 AM 14.0 °F -3.0 °F 5.0 °F 67% 29.57 in 10.0 mi WSW 18.4 mph 25.3 mph N/A   Scattered Clouds
3:15 AM 15.8 °F -1.1 °F 5.0 °F 62% 29.55 in 10.0 mi WSW 19.6 mph 31.1 mph N/A   Scattered Clouds
3:35 AM 15.8 °F -0.6 °F 5.0 °F 62% 29.55 in 10.0 mi WSW 18.4 mph 28.8 mph N/A   Mostly Cloudy
3:55 AM 15.8 °F -1.1 °F 5.0 °F 62% 29.55 in 10.0 mi WSW 19.6 mph 25.3 mph N/A   Mostly Cloudy
4:15 AM 15.8 °F -0.6 °F 6.8 °F 68% 29.54 in 10.0 mi WSW 18.4 mph - N/A   Overcast
4:35 AM 15.8 °F -0.2 °F 6.8 °F 68% 29.55 in 10.0 mi WSW 17.3 mph 24.2 mph N/A   Overcast
4:55 AM 15.8 °F -1.1 °F 8.6 °F 73% 29.56 in 10.0 mi West 19.6 mph 26.5 mph N/A   Overcast
5:15 AM 15.8 °F -1.1 °F 8.6 °F 73% 29.56 in 9.0 mi West 19.6 mph 29.9 mph N/A   Mostly Cloudy
5:35 AM 15.8 °F -1.1 °F 8.6 °F 73% 29.57 in 9.0 mi West 19.6 mph 28.8 mph N/A   Mostly Cloudy
5:55 AM 15.8 °F -2.3 °F 10.4 °F 79% 29.58 in 4.0 mi West 23.0 mph - N/A Snow Light Snow
6:15 AM 15.8 °F -1.1 °F 12.2 °F 86% 29.60 in 0.2 mi WNW 19.6 mph 29.9 mph N/A Snow Light Snow
6:35 AM 14.0 °F -4.7 °F 8.6 °F 79% 29.62 in 0.2 mi WNW 23.0 mph 36.8 mph N/A Snow Light Snow
6:55 AM 14.0 °F -4.3 °F 8.6 °F 79% 29.63 in 1.2 mi WNW 21.9 mph 33.4 mph N/A Snow Light Snow
7:15 AM 14.0 °F -5.5 °F 8.6 °F 79% 29.65 in 0.5 mi WNW 25.3 mph - N/A Snow Light Snow
7:35 AM 12.2 °F -7.1 °F 8.6 °F 85% 29.67 in 0.2 mi WNW 23.0 mph 29.9 mph N/A Snow Light Snow
7:55 AM 12.2 °F -6.3 °F 5.0 °F 73% 29.69 in 1.2 mi WNW 20.7 mph 28.8 mph N/A Snow Light Snow
8:15 AM 12.2 °F -7.1 °F 3.2 °F 67% 29.71 in 8.0 mi WNW 23.0 mph 28.8 mph N/A   Partly Cloudy
8:35 AM 12.2 °F -6.3 °F 3.2 °F 67% 29.73 in 3.0 mi WNW 20.7 mph 27.6 mph N/A   Haze
8:55 AM 10.4 °F -9.9 °F 3.2 °F 73% 29.76 in 1.2 mi WNW 24.2 mph 33.4 mph N/A Snow Light Snow
9:15 AM 10.4 °F -10.3 °F 1.4 °F 67% 29.78 in 2.0 mi NW 25.3 mph 33.4 mph N/A   Haze
9:35 AM 10.4 °F -8.2 °F 1.4 °F 67% 29.80 in 2.5 mi NW 19.6 mph 33.4 mph N/A   Haze
9:55 AM 10.4 °F -9.9 °F 1.4 °F 67% 29.81 in 0.8 mi WNW 24.2 mph 33.4 mph N/A Snow Light Snow
10:15 AM 8.6 °F -11.4 °F 3.2 °F 79% 29.84 in 0.2 mi NW 21.9 mph 36.8 mph N/A Snow Light Snow
10:35 AM 10.4 °F -8.2 °F -5.8 °F 48% 29.86 in 4.0 mi NNW 19.6 mph 27.6 mph N/A   Light Freezing Rain
10:55 AM 10.4 °F -7.2 °F -4.0 °F 52% 29.88 in 10.0 mi NNW 17.3 mph 27.6 mph N/A   Clear
11:15 AM 10.4 °F -10.3 °F -4.0 °F 52% 29.90 in 10.0 mi NW 25.3 mph 31.1 mph N/A   Light Freezing Rain
11:35 AM 10.4 °F -9.1 °F -5.8 °F 48% 29.92 in 2.0 mi NW 21.9 mph 33.4 mph N/A   Light Freezing Rain
11:55 AM 10.4 °F -7.2 °F -5.8 °F 48% 29.93 in 10.0 mi NW 17.3 mph 25.3 mph N/A   Light Freezing Rain
12:15 PM 10.4 °F -8.2 °F -7.6 °F 44% 29.95 in 10.0 mi NW 19.6 mph 26.5 mph N/A   Light Freezing Rain
12:35 PM 10.4 °F -7.2 °F -5.8 °F 48% 29.96 in 10.0 mi NNW 17.3 mph 28.8 mph N/A   Light Freezing Rain
12:55 PM 10.4 °F -7.7 °F -5.8 °F 48% 29.97 in 10.0 mi NNW 18.4 mph 27.6 mph N/A   Light Freezing Rain
1:15 PM 10.4 °F -9.5 °F -5.8 °F 48% 29.98 in 10.0 mi NW 23.0 mph - N/A   Light Freezing Rain
1:35 PM 8.6 °F -11.0 °F -7.6 °F 48% 29.99 in 10.0 mi NW 20.7 mph 26.5 mph N/A   Light Freezing Rain
1:55 PM 10.4 °F -8.2 °F -7.6 °F 44% 30.00 in 10.0 mi WNW 19.6 mph - N/A   Clear
2:15 PM 10.4 °F -8.2 °F -7.6 °F 44% 30.00 in 10.0 mi WNW 19.6 mph 27.6 mph N/A   Clear
2:35 PM 10.4 °F -7.2 °F -7.6 °F 44% 30.02 in 10.0 mi NW 17.3 mph - N/A Snow Light Snow
2:55 PM 10.4 °F -7.7 °F -7.6 °F 44% 30.03 in 10.0 mi NW 18.4 mph - N/A   Clear
3:15 PM 10.4 °F -5.4 °F -7.6 °F 44% 30.03 in 10.0 mi NW 13.8 mph 20.7 mph N/A   Clear
3:35 PM 10.4 °F -6.0 °F -7.6 °F 44% 30.04 in 10.0 mi NW 15.0 mph 21.9 mph N/A   Clear
3:55 PM 10.4 °F -6.0 °F -7.6 °F 44% 30.05 in 10.0 mi WNW 15.0 mph - N/A   Clear
4:15 PM 10.4 °F -5.4 °F -7.6 °F 44% 30.05 in 10.0 mi WNW 13.8 mph 20.7 mph N/A   Clear
4:35 PM 10.4 °F -5.4 °F -5.8 °F 48% 30.06 in 10.0 mi WNW 13.8 mph - N/A   Partly Cloudy
4:55 PM 10.4 °F -2.4 °F -7.6 °F 44% 30.07 in 10.0 mi NW 9.2 mph - N/A   Mostly Cloudy
5:15 PM 10.4 °F -3.3 °F -7.6 °F 44% 30.07 in 10.0 mi NW 10.4 mph 16.1 mph N/A   Scattered Clouds
5:35 PM 10.4 °F -4.8 °F -7.6 °F 44% 30.09 in 10.0 mi WNW 12.7 mph - N/A   Clear
5:55 PM 8.6 °F -6.3 °F -7.6 °F 48% 30.09 in 10.0 mi WNW 11.5 mph - N/A   Clear
6:15 PM 8.6 °F -4.7 °F -7.6 °F 48% 30.10 in 10.0 mi WNW 9.2 mph - N/A   Clear
6:35 PM 8.6 °F -3.7 °F -7.6 °F 48% 30.10 in 10.0 mi WNW 8.1 mph - N/A   Clear
6:55 PM 6.8 °F -6.9 °F -9.4 °F 48% 30.12 in 10.0 mi WNW 9.2 mph - N/A   Clear
7:15 PM 6.8 °F -4.8 °F -7.6 °F 52% 30.13 in 10.0 mi NW 6.9 mph - N/A   Clear
7:35 PM 6.8 °F -2.0 °F -7.6 °F 52% 30.13 in 10.0 mi NW 4.6 mph - N/A   Clear
7:55 PM 5.0 °F -5.6 °F -9.4 °F 52% 30.14 in 10.0 mi NW 5.8 mph - N/A   Clear
8:15 PM 5.0 °F -4.1 °F -9.4 °F 52% 30.15 in 10.0 mi NW 4.6 mph - N/A   Clear
8:35 PM 5.0 °F -2.1 °F -7.6 °F 56% 30.15 in 10.0 mi NW 3.5 mph - N/A   Clear
8:55 PM 5.0 °F -4.1 °F -7.6 °F 56% 30.16 in 10.0 mi NW 4.6 mph - N/A   Clear
9:15 PM 5.0 °F -4.1 °F -9.4 °F 52% 30.16 in 10.0 mi NW 4.6 mph - N/A   Clear
9:35 PM 5.0 °F -5.6 °F -9.4 °F 52% 30.17 in 10.0 mi NW 5.8 mph - N/A   Clear
9:55 PM 3.2 °F -6.2 °F -11.2 °F 51% 30.18 in 10.0 mi NW 4.6 mph - N/A   Clear
10:15 PM 3.2 °F -6.2 °F -11.2 °F 51% 30.18 in 10.0 mi NW 4.6 mph - N/A   Clear
10:35 PM 3.2 °F -7.8 °F -11.2 °F 51% 30.18 in 10.0 mi NW 5.8 mph - N/A   Clear
10:55 PM 3.2 °F -6.2 °F -11.2 °F 51% 30.18 in 10.0 mi NNW 4.6 mph - N/A   Clear
11:15 PM 3.2 °F -9.1 °F -11.2 °F 51% 30.18 in 10.0 mi North 6.9 mph - N/A   Clear
11:35 PM 3.2 °F -6.2 °F -11.2 °F 51% 30.19 in 10.0 mi North 4.6 mph - N/A   Clear
11:55 PM 3.2 °F - -11.2 °F 51% 30.19 in 10.0 mi Calm Calm - N/A   Clear